Wind_Speed
21 19 18 17 17 16 16 15 14 14 13 13 12 11 11 11 11 13 12 12 13 11 11 13 14 15 15 15 14 14 13 13 13 14 14 14 14 15 15 16 17 18 20 20 21 23 20 18 21 23 23 24 24 25 26 27 27 25 24 23 24 23 20 27 37 41 40 34 27 23 20 23 30 32 35 35 33 34 29 25 31 29 24 24 18 13 20
19 18 18 18 18 17 17 16 16 16 15 16 15 13 13 14 14 14 13 13 13 12 13 14 14 15 15 15 14 14 14 14 13 14 14 14 14 15 16 17 18 19 20 20 22 23 21 20 22 23 24 25 25 25 26 26 24 24 23 23 23 21 18 25 30 28 32 34 29 30 33 35 38 39 39 39 38 37 33 33 32 25 27 26 12 13 29
18 18 18 18 18 18 18 18 18 18 18 18 16 14 14 14 15 15 15 13 12 13 16 15 14 16 17 15 15 14 13 14 13 13 14 14 14 15 17 18 19 20 20 20 21 23 22 21 21 23 25 25 24 25 26 24 23 23 24 24 24 22 21 24 18 10 13 18 20 30 40 42 43 43 41 40 40 36 34 35 26 19 31 32 16 21 42
19 19 19 18 18 18 18 19 19 18 18 17 16 14 13 12 14 15 15 13 11 13 16 15 14 16 16 15 16 14 13 13 13 13 14 14 15 16 17 18 19 20 21 21 21 23 23 22 22 24 24 24 24 25 24 22 22 23 25 26 25 24 25 24 20 18 19 25 30 35 39 42 43 43 43 42 40 37 36 32 25 25 36 37 29 34 47
24 23 23 22 21 20 20 20 19 18 17 16 15 13 11 11 11 11 11 11 12 14 15 15 14 15 14 15 15 14 14 13 12 13 14 14 15 16 17 18 19 20 22 22 22 24 23 22 23 24 23 23 23 23 22 21 21 24 26 26 26 27 27 25 24 27 28 33 37 37 35 38 40 41 45 43 35 33 34 32 32 33 30 31 39 45 48
27 27 26 25 24 23 22 21 20 19 18 16 15 13 12 12 12 11 10 11 12 13 14 14 14 14 14 14 14 14 14 13 12 13 14 15 16 16 17 19 20 21 22 23 23 25 24 23 24 24 24 23 22 22 22 20 23 26 25 26 27 27 28 28 29 32 34 34 34 34 34 37 40 42 42 36 29 31 35 34 33 32 26 31 45 50 51
28 27 26 25 24 23 22 21 20 19 18 17 15 13 12 12 13 13 12 12 13 13 13 14 14 13 13 13 14 14 14 13 13 13 14 15 16 17 18 20 21 21 22 23 24 25 26 26 26 25 24 24 24 23 21 21 25 26 25 26 26 26 29 30 30 36 38 34 34 36 36 39 44 39 31 30 34 37 36 33 32 32 34 40 48 52 53
28 27 26 25 24 23 21 21 20 19 18 17 16 15 14 13 13 13 12 12 13 13 13 13 13 12 12 12 12 13 13 14 13 13 14 15 16 17 19 20 21 21 22 23 24 24 24 24 24 24 23 23 23 22 20 21 24 24 25 26 25 27 31 30 31 38 39 37 38 39 39 42 41 32 30 38 43 38 32 31 34 38 43 49 51 51 50
27 26 25 24 23 22 21 19 18 17 16 16 15 14 14 14 14 13 12 11 13 13 12 12 11 11 11 11 12 12 13 14 13 13 14 15 16 18 19 20 20 20 21 22 22 22 22 21 21 21 20 21 20 19 19 22 23 23 24 24 25 28 30 32 33 35 38 40 39 40 45 42 32 31 41 45 39 33 32 34 39 44 48 52 50 47 45
25 24 23 22 21 20 19 18 18 17 16 15 14 13 13 13 13 14 12 11 12 12 11 11 10 11 11 11 12 12 13 14 13 13 14 15 17 18 18 19 20 20 21 21 22 22 21 20 19 18 18 19 18 16 18 20 22 23 23 24 26 27 28 33 32 31 40 42 37 41 45 31 23 36 45 39 32 33 37 42 48 49 47 47 46 44 43
23 22 20 20 18 18 17 17 16 16 15 14 13 12 13 12 12 13 12 11 11 11 11 10 9 10 11 11 12 12 13 13 14 14 15 15 17 18 18 19 20 21 21 21 22 22 20 19 18 17 17 18 17 15 16 19 20 22 24 26 28 28 29 31 28 28 37 40 39 40 29 14 23 41 37 27 30 38 45 51 53 51 50 47 42 39 43
20 19 18 17 16 15 15 14 14 14 14 13 12 11 12 12 12 12 11 11 11 10 10 9 9 9 10 11 12 12 13 13 14 14 15 16 17 18 19 19 20 21 21 22 22 21 20 19 18 17 17 18 17 15 15 18 21 23 26 27 29 31 30 29 28 29 32 37 37 25 13 19 35 36 25 26 35 43 52 56 55 54 50 40 33 39 52
17 16 14 14 13 13 13 13 13 13 12 11 11 10 11 11 11 12 11 10 11 10 9 9 9 9 10 11 12 12 13 14 14 14 15 16 17 18 19 20 21 21 22 22 22 21 20 20 20 19 18 19 18 14 15 19 22 25 28 28 29 31 29 29 31 28 28 34 29 14 19 37 37 24 25 35 42 47 53 56 59 53 38 30 38 53 62
14 13 12 11 11 11 11 12 12 12 11 10 9 9 10 10 10 11 11 10 10 9 9 8 8 8 9 11 12 12 13 14 13 14 15 16 17 19 19 20 21 21 22 22 22 23 22 22 22 21 19 21 20 16 15 20 24 25 27 28 29 29 27 29 29 25 25 32 31 27 33 34 22 20 31 39 44 52 53 53 53 40 27 35 54 62 61
12 12 11 10 10 10 10 11 12 12 11 9 8 8 9 9 9 10 11 10 10 9 8 8 8 8 8 10 12 12 13 13 13 13 15 16 18 18 18 20 21 21 22 22 22 23 24 24 25 23 21 23 23 17 16 21 24 25 26 28 29 28 27 26 25 25 28 29 26 24 22 17 18 27 35 39 49 56 55 50 42 30 33 51 61 58 58
12 12 11 11 10 9 9 10 11 11 10 8 7 7 8 8 9 9 10 10 10 8 8 7 7 8 8 10 12 12 12 12 13 14 15 16 18 18 18 20 20 20 22 22 22 23 23 23 24 22 19 22 23 18 18 23 25 25 26 28 29 28 27 25 24 27 29 26 20 15 12 16 28 36 40 47 55 58 54 44 35 38 50 59 58 56 58
12 12 11 10 10 9 10 11 11 11 10 8 7 7 7 8 8 9 9 10 10 9 8 7 7 8 9 10 11 11 11 12 13 14 16 16 17 17 18 19 20 19 21 22 21 22 23 23 23 20 18 21 23 21 20 24 26 27 28 29 29 28 26 26 26 29 32 27 22 19 18 23 30 36 44 53 58 58 46 28 30 51 60 56 55 58 58
11 11 10 10 11 11 12 12 12 10 9 8 7 7 7 8 8 8 9 10 10 9 8 7 7 7 8 9 10 11 11 12 13 14 16 16 17 17 17 18 19 19 20 21 21 22 23 23 22 20 19 20 22 22 22 24 25 26 28 31 30 28 27 27 28 31 32 29 26 26 27 28 31 37 48 56 58 53 37 25 39 58 59 55 57 59 59
10 9 10 11 12 13 13 13 12 11 9 8 7 7 8 8 8 9 9 10 10 9 7 7 7 7 7 9 10 11 12 13 14 15 16 17 17 17 17 18 19 18 19 20 21 21 22 22 21 20 19 21 22 22 22 24 23 23 27 30 30 28 28 29 29 29 30 30 29 28 27 30 37 46 53 54 49 41 35 40 52 57 56 57 59 58 59
9 9 11 12 13 14 14 13 12 11 9 8 8 8 8 8 8 9 9 10 10 9 7 6 7 7 7 9 10 11 13 14 14 15 16 17 17 17 17 18 19 18 18 20 21 21 22 22 21 20 19 21 22 22 22 23 22 22 25 26 25 26 28 28 29 31 30 28 24 18 21 32 45 52 53 49 41 37 42 51 55 55 57 59 58 59 60
9 10 12 13 14 14 14 13 12 10 9 8 8 7 7 8 8 9 9 10 9 8 7 7 7 7 7 9 10 11 13 14 14 15 16 16 17 17 18 19 19 19 19 20 21 22 22 21 21 20 19 20 21 21 22 23 20 21 24 23 22 24 27 27 30 30 28 26 23 20 25 37 46 48 48 45 43 43 47 51 54 56 59 59 58 59 58
11 12 13 14 14 14 14 13 11 9 8 8 7 7 8 8 9 9 9 9 8 8 7 7 7 6 7 9 10 12 13 14 14 15 16 16 17 17 18 19 19 19 19 20 21 22 22 20 20 19 19 21 22 21 22 22 19 20 23 23 23 25 27 28 32 31 28 30 32 31 34 40 43 44 45 45 46 48 49 50 53 56 59 59 59 57 55
13 14 14 14 14 14 13 12 10 9 9 8 8 9 9 10 10 9 9 9 8 7 7 7 7 7 7 9 10 12 13 14 14 15 16 17 17 17 18 19 19 18 18 18 19 20 20 20 19 20 21 23 23 22 22 21 20 21 23 22 24 28 28 29 33 35 35 35 35 36 40 44 45 44 44 46 48 50 51 53 54 56 58 58 55 54 55
14 14 14 14 13 13 12 11 9 9 9 9 9 10 10 10 9 9 9 8 8 7 6 6 6 6 7 9 10 11 13 14 14 15 16 16 17 17 18 19 18 17 17 17 18 20 20 20 19 19 21 22 21 21 22 21 20 23 25 25 28 30 31 32 35 38 40 39 38 39 44 46 45 45 47 49 51 52 53 55 57 58 57 54 52 55 57
13 14 13 13 12 11 11 10 9 9 9 9 9 10 10 10 9 9 9 8 7 6 6 6 6 5 6 8 10 11 13 13 14 15 16 16 16 16 17 18 17 17 17 17 18 19 20 20 19 19 22 23 21 20 21 21 22 24 25 28 32 32 31 34 37 39 41 41 40 42 44 44 43 45 49 51 53 54 55 56 58 58 55 53 54 56 57
12 12 11 11 10 10 10 10 9 9 10 10 10 11 11 10 9 9 8 8 7 6 6 6 5 4 6 8 10 11 13 13 14 15 15 16 16 16 17 18 17 16 16 16 17 19 20 20 19 20 22 23 21 19 19 20 22 24 25 28 30 31 32 36 39 41 43 43 43 47 49 49 47 47 49 51 52 55 58 58 57 55 54 55 57 57 57
11 11 10 9 9 9 9 10 10 11 11 11 11 11 11 10 9 9 9 8 7 6 6 6 5 4 6 8 10 12 13 14 14 15 15 15 15 15 16 17 16 16 16 16 16 18 20 21 20 20 23 24 22 20 20 21 22 24 27 29 30 32 35 38 40 43 45 44 44 46 49 50 49 49 50 51 52 56 59 59 56 55 54 56 57 58 57
11 10 10 10 10 11 11 11 12 12 12 12 11 10 10 9 9 9 8 7 6 5 5 6 5 4 6 9 10 12 14 14 14 15 15 15 15 15 16 17 16 15 16 16 16 18 20 20 19 20 23 25 23 21 21 21 22 25 29 31 31 32 36 38 39 41 42 41 41 42 43 45 47 48 50 52 55 58 59 57 54 54 54 56 57 58 58
11 11 11 11 11 11 12 12 12 11 11 11 11 10 10 9 8 7 7 6 5 5 5 6 5 5 7 10 11 13 14 14 14 15 15 14 15 15 16 16 16 15 16 16 15 17 20 20 19 20 23 26 25 23 22 22 23 27 30 31 30 31 34 36 38 39 39 39 40 41 41 43 45 47 49 53 56 57 56 54 53 53 54 55 56 56 57
12 12 13 12 12 12 12 12 12 12 11 11 10 9 8 7 6 6 5 5 4 5 5 6 6 6 7 10 12 13 14 14 14 15 15 14 14 14 15 16 15 15 16 16 15 16 20 21 19 19 23 26 26 24 24 24 24 27 30 31 32 33 34 36 37 38 38 38 39 40 41 43 45 48 50 53 56 56 54 52 52 53 54 55 55 55 56
13 14 14 14 14 14 14 13 13 12 11 10 9 8 7 6 5 4 4 4 5 5 5 6 8 7 8 10 12 14 15 14 14 14 14 14 14 14 15 15 15 14 16 16 15 16 20 21 19 19 23 26 27 26 26 26 27 30 32 33 34 35 36 37 37 36 37 38 41 42 42 44 48 51 53 55 56 54 52 51 52 53 54 54 54 54 55
14 14 14 15 15 14 14 13 12 11 10 9 8 7 5 4 4 4 5 5 5 5 6 7 9 9 9 11 12 14 14 14 14 14 14 14 13 14 14 15 14 14 16 16 15 17 20 21 20 20 23 26 28 28 28 28 30 32 34 34 35 36 37 37 38 37 37 39 43 46 47 48 50 53 55 56 55 53 52 52 52 53 53 53 53 53 54
14 15 15 15 15 15 14 13 12 11 9 8 7 5 4 3 4 5 5 5 5 6 6 8 9 10 10 11 12 14 14 14 14 14 14 13 13 14 14 15 14 14 15 15 15 16 20 21 20 20 23 26 28 29 30 31 32 33 34 35 37 38 38 38 38 38 38 40 43 47 49 50 51 52 54 55 54 52 52 52 52 53 53 53 54 55 55
15 15 15 15 15 15 15 13 12 10 8 7 5 4 4 4 4 5 6 6 5 6 7 9 10 11 11 12 12 13 14 14 14 14 14 13 13 14 14 14 14 13 15 16 15 16 19 21 20 20 23 27 29 30 32 34 34 34 35 37 38 39 40 40 39 39 40 42 43 45 47 49 50 52 54 54 53 51 51 52 53 53 54 55 56 56 57
16 16 16 15 15 15 15 13 11 9 7 6 5 5 5 5 5 5 6 6 6 7 8 9 10 11 12 12 12 13 13 14 14 14 13 13 14 14 14 14 13 13 15 15 15 16 19 20 20 21 23 26 30 33 35 36 36 36 37 39 40 41 41 42 41 40 41 42 44 45 47 49 51 54 55 54 52 52 51 52 52 53 54 55 56 56 57
16 16 16 15 15 14 14 12 10 8 7 6 6 6 5 6 6 6 6 7 7 8 9 10 11 12 13 13 13 13 13 13 14 14 13 13 14 14 14 13 13 13 15 15 15 17 20 20 20 21 23 27 31 35 37 37 38 38 39 40 41 41 42 42 41 41 41 42 44 46 48 50 53 55 55 53 52 51 51 52 52 53 55 56 56 56 57
17 16 15 14 13 13 13 11 10 8 7 6 6 6 6 6 6 6 7 8 8 8 9 11 12 12 13 14 13 13 13 14 14 13 13 14 14 14 14 13 13 13 14 14 14 17 20 20 20 21 24 28 33 36 37 38 38 39 39 40 40 40 41 41 41 41 41 42 45 48 51 52 54 55 54 52 51 51 51 52 53 53 55 55 56 56 56
17 16 14 13 12 11 11 10 9 8 7 6 6 6 6 6 7 7 7 8 8 9 10 11 12 12 13 14 13 13 13 13 13 13 13 14 14 14 14 13 13 14 14 13 14 18 21 21 21 22 25 30 35 37 37 38 38 39 40 40 40 40 40 40 41 42 44 46 49 51 53 54 55 55 54 52 50 50 50 51 51 52 53 54 55 55 56
18 16 13 11 10 9 9 9 8 7 6 6 6 7 7 7 8 8 7 8 9 10 11 12 12 13 14 14 14 14 14 13 13 13 13 14 14 14 14 13 13 15 15 14 15 19 21 21 21 23 27 32 36 37 38 38 38 39 40 40 40 39 39 39 40 42 44 46 49 51 52 54 55 55 53 51 50 49 49 49 50 51 52 53 54 55 55
17 14 11 10 9 8 7 7 7 6 5 5 7 8 8 8 8 9 9 9 10 11 12 13 14 14 15 15 15 14 14 14 13 14 14 14 14 14 13 13 14 15 14 14 17 20 21 21 22 25 29 34 36 37 38 38 38 39 40 40 39 39 38 39 40 41 42 44 46 48 50 52 53 53 52 50 49 49 48 49 49 50 51 52 53 54 55
16 13 10 8 7 7 6 6 6 5 5 6 7 8 9 9 10 10 10 10 11 12 13 14 15 15 16 16 15 15 14 14 14 14 14 14 14 14 13 13 14 14 13 15 19 21 21 21 23 27 31 35 37 37 38 39 39 40 41 40 39 38 38 38 39 40 41 43 45 47 49 51 52 52 50 48 48 48 48 48 49 50 51 52 53 54 55
14 11 9 7 6 6 6 5 5 5 5 6 8 9 9 10 11 11 11 11 12 13 14 15 15 16 17 17 16 15 15 15 15 14 15 15 15 14 13 13 13 13 15 17 19 20 20 22 26 30 34 36 37 37 38 39 39 40 41 40 39 38 37 38 39 40 41 43 44 46 48 50 51 51 49 48 47 47 47 47 48 49 50 51 52 53 54
13 11 9 7 6 6 6 5 5 5 6 7 9 10 10 10 11 11 11 12 13 14 15 16 16 17 17 17 17 16 15 15 15 14 15 15 15 14 13 14 15 15 17 18 19 20 21 24 28 32 35 37 37 38 38 39 39 41 41 40 39 38 38 38 39 40 41 42 44 45 48 50 51 50 49 47 46 46 46 46 47 48 49 50 51 52 53
12 11 9 8 7 7 6 5 5 6 7 8 10 10 10 10 11 11 11 12 13 14 15 16 17 17 17 17 17 16 15 15 15 14 15 16 15 13 14 15 17 17 17 18 20 21 23 26 30 34 36 37 37 38 38 38 39 40 40 40 39 38 38 39 39 39 40 42 43 45 47 49 50 49 48 47 46 45 45 46 46 47 49 50 50 52 53
12 11 10 8 8 8 7 6 6 8 9 9 10 10 10 11 11 11 12 12 13 15 16 17 17 18 18 18 17 16 15 15 14 14 15 16 16 14 15 16 17 17 18 20 22 24 26 30 33 34 35 36 37 37 38 38 39 39 40 39 39 38 38 39 39 39 40 42 43 44 46 48 49 48 48 46 45 45 45 45 46 47 48 49 50 51 53
13 12 11 9 8 9 8 8 8 9 10 10 10 10 10 11 11 11 12 13 14 16 17 18 18 18 19 18 17 16 15 15 15 14 15 17 16 15 16 17 17 17 19 22 24 27 29 32 34 34 35 36 37 37 37 38 38 39 39 39 38 38 38 39 39 40 41 42 43 44 46 47 48 48 47 46 45 44 44 44 45 46 47 49 50 52 52
13 12 11 10 10 10 11 10 10 10 10 10 10 11 11 11 12 12 13 14 16 17 18 18 19 19 19 18 17 15 15 16 15 15 16 17 18 17 17 17 17 18 20 24 27 29 31 33 34 34 35 36 36 36 37 37 38 39 39 38 38 38 39 39 39 40 41 42 43 44 45 47 48 48 47 46 45 44 44 44 44 45 47 49 50 51 52
13 12 12 11 11 12 12 12 11 11 11 11 11 12 12 12 13 14 15 16 17 18 19 19 19 19 19 19 18 16 16 16 16 16 17 18 18 17 17 18 19 21 23 26 29 31 31 32 33 34 35 35 36 36 37 37 38 38 38 38 37 38 39 39 39 40 41 42 43 44 45 47 47 47 46 45 44 43 43 43 44 45 46 47 48 49 50
13 12 12 12 12 12 12 12 12 12 13 13 13 13 14 14 14 16 17 18 19 20 20 20 20 19 19 19 19 17 16 17 17 17 18 19 18 18 19 21 23 25 27 29 31 32 32 33 33 34 35 35 36 36 36 37 37 38 38 38 37 38 38 39 39 40 41 42 43 44 45 46 47 47 46 45 44 43 43 43 43 44 45 46 47 48 50
13 13 12 12 12 12 12 12 12 13 13 14 14 15 15 16 16 17 18 19 20 21 21 21 21 20 19 19 19 18 17 18 18 18 19 19 19 20 22 24 25 27 29 30 31 32 32 33 33 34 35 35 36 36 36 37 37 37 38 37 37 37 38 39 39 39 40 42 43 44 45 46 47 46 45 44 43 42 42 42 42 42 44 45 46 48 49
13 13 13 13 13 13 13 13 14 14 14 15 15 16 16 17 17 18 19 20 21 22 22 22 22 21 20 20 19 19 19 19 18 18 19 20 20 21 23 25 26 28 29 30 31 31 32 32 33 34 35 36 36 36 36 37 37 37 38 37 37 37 38 38 39 39 40 41 42 44 44 46 46 46 45 44 43 42 41 41 40 41 42 44 46 47 49
13 13 13 13 14 14 14 15 15 15 16 16 16 16 16 17 18 18 19 20 21 21 22 23 23 22 21 20 20 20 21 21 20 19 20 21 22 24 25 27 28 29 30 30 31 32 32 33 33 34 35 35 36 36 36 36 37 37 37 37 37 37 38 38 39 39 40 41 42 43 44 45 45 45 44 44 42 41 40 39 39 40 41 43 45 47 48
Wind_Direction
116 116 116 115 115 114 112 111 109 107 107 105 103 102 101 103 99 95 94 94 95 97 95 93 90 87 86 84 81 76 70 62 53 44 39 34 29 26 21 15 14 12 8 6 3 2 1 359 360 357 353 352 347 345 346 344 344 345 343 344 343 337 328 319 320 326 332 340 345 341 336 329 325 322 319 315 311 311 307 299 299 295 287 290 287 281 297
116 116 115 113 112 111 108 106 105 103 101 97 96 97 100 102 97 93 90 87 92 97 92 85 83 84 82 79 75 69 63 57 49 42 36 31 28 23 18 15 13 11 8 5 2 3 1 357 357 355 351 350 349 346 345 345 346 346 344 345 343 339 333 325 324 330 336 340 344 338 332 327 321 319 320 319 315 314 312 308 304 293 288 294 283 276 298
114 114 114 112 110 107 105 103 101 99 97 95 95 96 97 97 95 93 88 84 86 89 85 79 75 76 75 72 68 62 57 51 45 40 33 28 27 21 16 14 10 8 7 3 2 2 359 355 354 353 352 351 349 347 346 347 348 348 347 346 342 338 334 330 322 312 320 321 323 326 323 319 318 319 322 321 318 316 315 313 305 289 296 298 276 279 300
110 110 110 110 108 105 102 99 97 94 93 93 94 93 92 91 90 90 88 84 79 77 77 75 70 67 66 65 61 56 52 48 41 36 30 27 25 20 16 12 8 7 4 2 1 0 357 355 352 352 354 352 349 347 347 348 351 352 348 346 343 336 335 337 324 304 302 304 312 321 320 314 316 320 322 323 322 320 319 313 299 297 303 299 292 299 307
105 104 104 105 104 102 99 95 93 92 91 91 90 90 90 89 88 87 87 84 76 71 72 72 67 62 59 58 56 51 47 44 38 32 28 25 22 18 13 10 7 5 3 1 0 358 357 355 353 353 355 354 351 348 348 351 355 355 350 349 345 335 333 339 330 317 316 316 320 326 323 314 315 318 320 325 327 323 318 310 307 313 307 295 306 314 313
102 101 101 100 98 97 95 93 92 91 89 88 87 86 85 84 84 82 83 83 77 72 71 68 64 59 54 52 50 45 41 39 36 30 25 23 20 15 10 8 6 4 2 1 359 356 356 357 356 355 354 355 354 352 352 356 358 357 354 350 345 335 331 336 331 323 324 325 327 331 326 321 320 321 322 327 329 325 320 316 319 322 308 300 312 317 314
99 97 96 95 94 92 91 91 90 88 87 84 83 82 79 78 80 77 76 77 75 71 68 65 61 55 49 45 44 40 37 35 31 27 24 21 18 13 9 7 5 3 2 0 358 356 354 355 355 355 355 355 355 355 357 357 356 357 353 349 345 336 332 336 331 323 327 334 336 334 330 326 325 327 332 333 330 328 324 322 326 326 316 313 317 316 315
96 94 92 90 89 87 86 85 84 83 82 81 79 77 73 71 74 74 70 69 70 69 64 61 58 53 47 43 39 36 32 30 27 24 22 18 15 12 9 6 4 2 2 0 359 358 355 353 353 353 355 356 355 356 358 355 355 355 351 348 346 339 335 337 330 322 328 341 341 336 334 328 326 333 340 335 330 329 327 326 329 328 323 321 319 316 316
94 92 90 87 85 83 80 79 77 77 76 74 72 71 69 66 66 67 66 62 65 65 61 58 55 51 47 41 36 33 28 26 24 21 19 17 14 11 8 6 3 2 2 1 359 359 358 356 355 354 354 356 357 356 355 354 353 353 353 349 347 344 339 339 334 321 326 340 341 336 334 331 331 339 338 333 330 329 330 332 332 329 325 322 320 318 317
93 90 87 85 83 81 78 75 72 70 67 66 63 61 62 59 58 60 59 56 59 61 57 55 51 47 45 39 34 31 26 23 22 19 17 15 13 10 6 5 4 2 2 2 1 1 1 360 359 359 357 357 359 357 354 355 353 352 355 352 350 350 343 341 337 321 324 338 341 333 333 334 338 339 334 329 326 327 330 332 331 330 327 323 319 316 315
90 86 83 80 78 76 74 72 68 65 60 58 55 53 53 52 50 52 52 49 53 55 52 50 46 44 42 35 31 30 24 21 21 19 16 14 11 8 5 5 4 3 3 3 4 4 3 3 2 1 1 1 359 356 354 356 357 356 357 354 353 354 348 343 337 318 322 336 338 333 335 337 334 333 328 324 329 332 332 331 330 329 327 322 315 312 315
90 86 81 76 73 71 69 67 64 61 56 51 48 46 46 45 42 43 44 42 44 49 48 43 42 41 38 32 29 27 22 20 19 18 16 12 9 6 6 6 5 4 4 4 6 6 5 5 4 3 4 3 359 357 356 358 0 358 357 357 355 353 349 345 337 324 322 332 337 338 333 326 330 330 322 321 330 332 330 328 327 329 326 320 315 316 322
89 83 79 75 73 70 67 63 58 55 51 46 42 39 39 39 37 36 36 35 37 41 42 38 37 37 34 28 26 23 20 19 18 17 14 10 7 6 6 7 5 4 6 5 5 7 6 5 7 6 3 2 2 2 0 360 360 357 356 357 356 353 350 345 340 333 329 332 336 328 312 324 331 328 320 326 330 333 332 328 327 330 327 320 323 325 327
80 75 73 71 71 71 66 60 52 46 43 40 36 33 33 33 31 29 28 28 29 33 34 33 32 33 30 25 23 21 19 17 16 15 12 9 8 7 7 7 5 5 7 6 5 8 7 6 8 7 3 4 5 3 360 358 356 354 353 354 354 352 350 346 341 337 333 328 323 314 317 327 336 331 330 334 334 335 334 328 326 329 326 325 328 328 328
71 68 68 67 69 68 60 48 39 33 31 31 28 26 27 27 24 22 22 22 22 25 28 28 28 29 27 22 20 20 18 16 15 14 11 9 8 8 7 7 6 6 7 7 7 9 8 9 10 9 6 5 2 356 352 352 351 351 352 353 353 351 351 349 339 333 332 326 318 318 322 326 330 328 329 329 328 330 331 325 324 330 327 327 329 329 330
69 67 66 65 63 57 42 28 22 21 21 21 19 18 20 21 18 15 15 16 15 16 20 23 24 26 25 20 19 19 15 14 15 12 11 10 8 8 8 7 7 8 7 8 9 9 10 12 12 12 9 3 358 351 346 346 347 349 351 352 352 350 349 348 338 332 334 328 316 311 303 306 319 322 323 325 326 329 330 327 326 329 327 328 331 333 334
65 62 60 54 45 32 18 12 10 11 12 13 11 10 13 15 11 9 9 9 10 12 15 19 22 24 23 19 17 17 13 12 14 13 11 10 8 8 9 7 7 8 9 9 10 9 10 13 14 14 11 2 357 353 348 346 346 348 349 349 350 349 348 348 342 338 337 331 317 309 307 311 317 320 324 326 325 329 336 336 325 325 328 332 335 336 335
56 51 43 32 21 12 7 5 4 5 7 7 4 3 8 7 3 2 3 2 5 10 12 17 24 24 21 18 16 14 12 11 13 12 10 8 8 9 9 9 10 9 9 11 11 11 12 14 13 13 8 1 358 355 351 348 347 348 347 346 347 349 348 347 344 340 338 334 323 316 318 322 322 323 325 324 326 334 344 333 320 325 330 335 337 336 335
39 30 19 10 4 1 0 360 360 1 2 1 360 360 1 359 355 356 358 358 2 8 10 16 24 22 18 18 15 12 12 12 11 11 9 8 9 8 8 10 11 10 10 10 11 13 14 15 13 11 5 0 358 355 351 348 347 347 347 346 348 349 346 344 344 340 336 332 324 317 323 329 324 320 323 328 335 342 336 322 323 329 333 335 336 335 335
17 8 0 356 354 354 355 356 357 358 357 357 358 354 350 350 351 352 354 356 359 4 9 15 19 18 17 17 14 12 12 10 9 8 8 8 8 8 10 12 11 11 11 12 14 15 15 15 13 9 4 359 355 352 349 348 347 348 348 347 347 346 344 343 343 338 333 330 324 319 325 324 320 320 327 337 342 336 325 325 330 333 334 335 335 335 335
357 352 348 347 347 347 349 352 354 353 351 351 350 344 341 345 348 348 352 356 358 0 8 14 14 16 18 16 14 13 10 8 8 8 6 7 8 9 11 12 11 13 13 13 15 15 14 14 11 6 1 357 353 350 348 348 348 348 346 346 347 347 344 340 337 334 329 321 319 321 319 316 318 326 332 335 334 330 329 331 333 333 335 336 335 335 336
342 340 339 340 341 341 343 348 351 348 346 344 338 337 342 346 347 348 350 353 356 360 6 10 11 16 19 15 13 12 8 6 7 7 5 5 6 9 11 11 11 12 12 12 14 14 13 12 8 4 0 356 353 351 349 348 348 348 347 347 346 344 341 334 331 330 324 318 321 323 320 319 325 332 332 331 331 333 333 333 334 335 337 337 336 337 339
332 332 333 334 336 337 338 343 346 344 341 338 338 343 345 344 345 347 347 351 359 3 3 6 11 16 18 16 12 10 7 5 5 5 4 4 5 6 9 10 10 10 10 11 14 14 12 10 7 4 1 357 353 352 351 350 347 345 346 345 341 339 338 334 332 330 328 328 332 332 328 330 334 335 334 333 334 334 334 335 336 337 338 338 338 340 341
327 329 331 333 334 335 336 338 340 339 337 338 340 340 338 338 342 346 348 354 1 2 0 5 12 17 17 14 11 8 6 5 4 3 3 3 4 5 7 8 8 7 7 8 10 11 10 8 7 5 2 358 354 352 353 352 347 343 343 341 340 342 341 337 335 333 330 333 337 334 331 334 338 337 335 335 335 335 337 338 338 338 339 341 342 342 342
329 331 333 335 336 335 333 333 332 331 331 332 332 332 333 341 346 347 350 355 356 357 2 7 11 18 18 14 10 7 6 4 3 2 2 2 3 4 5 5 5 5 4 4 6 9 9 7 5 3 1 360 357 354 352 351 348 346 344 341 341 343 341 337 336 336 334 335 336 333 332 337 340 338 336 336 336 337 338 339 340 340 341 343 344 344 344
335 335 335 335 334 330 327 324 323 324 325 325 328 333 338 343 345 346 349 352 353 359 6 7 9 18 18 12 8 5 4 4 3 2 1 1 1 2 2 2 3 2 1 1 3 6 7 5 2 1 0 0 358 355 352 350 349 347 346 343 342 341 341 339 337 337 339 341 340 337 337 341 342 340 338 337 337 338 340 340 341 343 344 344 344 345 346
340 338 334 330 326 322 318 316 317 319 321 324 329 333 335 338 342 344 346 350 356 3 7 6 9 16 14 11 7 4 3 3 3 2 360 360 0 360 359 0 0 359 358 359 1 3 3 2 360 358 359 359 358 355 351 349 349 348 348 348 346 343 343 343 339 338 341 342 340 337 336 338 339 339 339 339 339 339 340 341 344 346 346 345 345 346 347
338 335 330 324 319 316 314 315 318 320 321 324 327 329 333 338 341 341 346 355 2 6 8 8 7 11 11 9 6 5 3 2 2 1 359 359 359 358 357 358 358 356 355 356 357 358 359 359 356 356 358 358 357 355 351 347 348 349 349 350 348 345 344 343 339 337 338 338 337 336 334 334 336 338 339 340 341 341 341 343 346 347 346 346 346 346 347
341 338 334 330 326 323 323 324 325 326 327 329 333 335 338 340 340 343 353 3 6 9 14 13 6 5 7 6 5 3 2 1 0 360 359 358 357 356 355 355 355 354 354 353 351 353 354 354 353 354 356 357 356 353 350 347 347 347 348 349 349 346 345 343 340 338 337 337 337 338 337 336 337 339 340 342 342 341 343 346 348 347 347 347 347 347 348
353 350 348 346 344 342 341 339 338 338 338 339 340 340 341 343 346 354 3 10 12 16 19 12 5 3 3 3 2 1 1 360 359 358 357 357 355 353 353 354 353 352 351 348 347 348 350 351 351 352 354 355 355 353 351 348 346 345 346 348 349 348 346 344 341 340 339 338 338 340 340 339 339 340 342 343 342 342 345 348 348 348 348 348 348 349 350
1 358 355 354 352 351 349 346 343 342 341 341 341 342 345 351 358 4 11 18 21 20 16 10 6 4 1 0 0 359 359 358 357 356 355 354 353 352 352 352 350 348 347 345 344 345 347 348 349 349 351 352 353 352 352 349 345 345 346 348 348 348 347 345 344 343 341 339 340 342 343 343 342 343 344 344 343 345 347 348 348 349 349 349 350 350 351
2 359 357 356 355 353 350 348 345 343 343 345 348 349 351 360 8 13 19 24 22 17 11 9 7 4 359 358 358 357 357 356 355 354 354 353 351 351 351 350 347 345 344 344 342 343 345 346 346 345 347 351 352 351 351 350 346 346 347 347 346 347 347 346 346 346 345 343 342 344 345 346 345 344 344 344 345 347 348 348 349 350 350 350 351 352 353
2 359 357 357 356 355 353 351 350 349 351 352 353 353 360 11 17 19 23 23 18 13 8 4 4 5 1 356 355 355 354 354 354 353 352 352 351 350 349 347 345 343 343 342 340 341 343 343 342 343 345 349 350 350 350 350 348 347 347 346 346 346 347 348 348 348 346 345 345 345 345 346 345 345 345 345 347 348 348 348 349 350 351 351 352 354 354
1 358 357 356 356 356 356 356 356 357 356 355 358 3 11 15 17 19 21 18 14 12 7 1 2 4 1 356 355 354 353 353 354 353 351 351 351 350 348 346 342 340 341 339 337 338 340 341 341 342 344 346 348 349 348 348 349 348 347 346 346 346 347 349 350 349 347 346 347 346 344 344 344 345 346 347 348 349 349 348 349 350 352 353 354 355 355
359 355 353 354 354 355 357 358 0 3 4 5 8 10 10 14 17 18 17 14 11 9 5 1 1 1 359 356 356 356 355 353 352 351 351 351 350 349 347 345 341 339 338 337 334 335 339 341 341 341 342 345 347 347 348 348 349 350 348 347 347 347 347 349 350 349 348 347 346 345 344 344 345 347 348 349 349 349 349 349 350 351 353 354 355 355 356
356 351 349 349 351 354 357 360 3 7 8 9 7 5 8 15 18 15 13 11 9 4 360 358 357 357 357 358 358 357 356 353 351 351 351 351 350 349 347 344 341 338 337 336 333 334 337 339 340 340 341 343 345 347 348 349 349 349 348 347 347 348 347 348 348 348 347 346 344 344 345 347 348 349 349 349 349 349 349 349 351 352 354 355 356 356 356
351 346 343 343 346 351 356 360 3 4 6 7 6 6 10 14 14 13 10 7 4 360 356 356 356 356 357 359 358 356 354 353 351 351 351 350 349 348 347 344 341 340 338 335 332 334 337 338 338 339 341 342 344 347 348 348 348 348 348 347 347 347 347 346 346 346 346 345 345 345 347 348 349 349 349 349 349 349 349 350 351 353 355 356 356 356 357
346 340 336 336 341 348 354 359 2 4 7 10 8 7 8 9 8 8 6 2 360 357 354 354 356 357 358 358 357 355 354 354 352 351 351 351 349 348 347 344 341 340 339 336 335 337 338 336 336 338 341 342 344 346 347 347 347 347 347 346 346 346 346 346 346 346 346 347 347 347 348 348 348 349 349 349 350 350 350 351 352 353 355 356 356 356 357
342 336 331 329 335 344 351 357 2 6 9 9 7 4 4 3 4 2 359 356 356 355 354 355 358 359 358 357 356 354 354 354 353 353 352 351 350 348 346 343 341 340 338 336 337 339 338 335 335 338 341 342 344 345 345 346 346 346 346 346 346 346 346 346 346 346 347 347 348 347 347 347 347 348 348 349 350 350 350 351 352 354 355 356 357 357 358
340 336 331 328 331 340 348 355 2 6 5 5 4 2 358 357 358 358 357 356 356 356 356 358 359 358 357 356 354 353 354 354 354 354 352 351 351 349 346 343 341 338 336 334 336 338 336 333 333 337 340 342 342 343 344 345 345 345 345 345 345 345 345 345 345 346 347 347 347 347 347 346 346 347 348 349 349 350 351 351 353 354 356 357 358 358 358
342 340 335 329 329 336 345 353 357 358 357 357 357 355 353 353 354 355 356 358 358 358 358 358 357 356 356 355 352 352 354 354 354 354 352 352 352 350 347 345 342 338 334 334 336 335 333 332 334 337 339 340 341 342 343 344 344 344 344 344 345 345 345 344 344 346 347 347 347 347 347 346 346 347 348 349 349 350 351 352 353 354 356 357 358 358 358
347 346 341 335 334 337 343 349 352 350 349 351 352 354 354 353 353 356 358 359 358 357 357 357 356 355 354 353 351 351 352 353 354 354 353 353 351 349 346 345 342 337 334 334 334 333 332 332 334 338 339 339 340 341 343 343 343 343 343 344 344 344 344 344 344 345 346 347 348 347 347 346 347 347 348 349 350 351 351 352 353 355 356 357 358 359 359
354 352 349 346 343 341 339 342 347 347 347 350 354 356 357 355 355 358 359 359 358 359 358 356 355 355 354 352 351 350 350 351 353 353 352 351 349 347 345 343 340 336 334 334 334 333 332 333 335 337 338 338 339 340 341 342 342 341 342 343 343 343 343 344 344 345 346 347 347 347 347 347 347 347 348 349 350 351 352 352 353 354 356 357 358 359 359
2 360 355 350 348 346 341 338 344 348 352 356 358 359 359 358 360 1 1 0 0 0 359 356 355 354 353 351 350 349 350 350 351 351 351 350 347 344 342 340 338 335 335 336 336 335 335 335 337 337 337 337 338 339 340 341 340 340 341 342 342 343 343 344 344 344 345 346 347 347 347 348 348 347 348 349 350 351 352 353 353 354 356 357 358 359 360
10 8 2 357 355 355 353 350 351 355 359 2 3 3 3 2 3 4 4 3 3 1 359 357 355 353 352 351 350 349 349 349 349 348 349 349 347 342 339 338 336 335 334 335 335 335 335 336 337 337 336 336 337 337 338 339 339 339 340 341 342 342 342 343 343 344 344 345 346 347 348 348 348 347 348 349 350 352 352 353 353 354 356 357 358 359 360
14 13 11 8 7 7 8 8 5 5 6 8 10 10 7 5 5 6 5 4 2 1 359 357 355 353 352 351 350 349 348 349 348 347 348 348 345 342 340 338 336 334 332 332 333 335 336 336 337 336 336 336 336 336 337 338 338 339 340 341 341 341 342 342 343 343 344 345 346 347 348 348 348 348 348 349 350 351 352 353 353 354 355 356 358 359 360
14 13 13 15 15 14 14 13 12 12 13 15 16 14 9 5 3 3 3 1 0 359 358 356 353 352 351 351 350 349 349 349 348 348 347 347 345 343 341 339 336 332 329 329 332 335 335 335 335 336 335 336 336 336 336 337 337 338 340 341 340 340 341 342 342 343 343 344 345 347 348 348 348 348 348 349 350 351 352 353 353 354 355 356 357 358 359
11 8 11 16 17 15 14 15 15 16 17 16 15 11 6 2 358 356 356 356 356 355 354 352 350 349 349 350 349 349 349 350 349 348 346 345 343 341 339 335 333 331 328 328 331 334 335 334 334 335 335 335 336 336 336 337 337 338 339 340 340 340 340 341 342 342 342 343 345 346 347 348 348 349 349 348 349 350 352 353 354 354 355 356 357 358 358
8 5 6 10 11 10 11 13 13 12 11 9 6 3 360 356 352 350 349 349 349 349 348 347 346 344 344 346 346 347 347 348 347 345 344 342 340 337 333 330 329 330 331 331 332 334 334 334 334 334 334 335 336 336 336 336 337 338 338 339 339 339 339 340 341 341 342 343 344 345 347 348 349 349 348 348 349 349 351 354 354 354 353 354 356 357 359
7 5 6 5 4 4 5 5 4 3 1 358 356 354 352 349 347 346 346 344 344 343 343 342 341 339 338 340 342 344 344 343 342 341 341 340 337 333 332 331 331 332 333 334 334 334 334 334 334 334 334 334 335 335 335 336 337 337 338 338 338 338 339 339 340 341 342 342 343 345 346 347 348 348 348 348 348 349 351 353 354 353 352 353 355 357 359
0 4 6 4 360 358 357 355 353 352 350 348 346 345 344 343 343 343 342 341 340 339 339 338 338 335 333 333 335 336 335 335 336 337 338 337 334 332 333 335 335 336 337 338 337 336 335 334 334 334 334 334 334 334 334 335 336 337 337 337 337 337 338 338 339 340 341 342 343 344 345 346 347 347 347 347 348 349 350 351 352 352 352 353 355 357 359
349 355 359 357 356 355 354 351 348 345 342 339 338 337 336 337 337 338 337 336 335 334 333 333 333 330 326 324 324 325 324 325 327 330 333 333 330 330 332 335 336 337 338 339 338 338 337 336 335 335 334 334 333 333 333 334 335 336 336 336 336 337 337 338 339 339 340 341 342 343 344 345 346 346 347 347 348 348 349 349 351 352 353 354 355 357 359
Height
3165 3166 3167 3168 3168 3169 3169 3169 3169 3169 3170 3170 3170 3170 3170 3171 3171 3170 3170 3170 3169 3169 3169 3169 3168 3168 3168 3168 3168 3167 3167 3167 3167 3166 3166 3165 3165 3164 3163 3162 3161 3160 3158 3156 3154 3152 3150 3148 3147 3146 3144 3143 3141 3138 3135 3133 3130 3128 3126 3124 3122 3120 3116 3109 3101 3095 3093 3094 3093 3092 3091 3090 3088 3086 3084 3082 3080 3077 3076 3069 3062 3057 3052 3050 3048 3033 3024
3167 3168 3169 3170 3170 3170 3170 3171 3171 3171 3171 3171 3171 3172 3172 3172 3172 3171 3171 3171 3170 3170 3170 3170 3170 3169 3168 3168 3168 3168 3168 3168 3167 3167 3166 3166 3165 3164 3163 3162 3161 3159 3157 3156 3154 3152 3150 3148 3146 3145 3144 3141 3139 3137 3134 3132 3129 3127 3125 3124 3122 3120 3117 3113 3105 3097 3091 3089 3089 3089 3088 3087 3085 3083 3082 3079 3077 3075 3071 3067 3063 3056 3048 3048 3046 3030 3022
3169 3170 3171 3171 3172 3172 3172 3172 3172 3173 3172 3173 3173 3174 3174 3173 3173 3172 3172 3172 3172 3171 3170 3171 3170 3169 3169 3169 3169 3168 3168 3168 3168 3167 3167 3166 3165 3164 3163 3162 3160 3159 3157 3155 3153 3152 3150 3148 3146 3145 3143 3140 3138 3135 3133 3131 3129 3127 3124 3122 3121 3119 3117 3115 3112 3108 3103 3096 3093 3091 3087 3085 3082 3080 3079 3076 3074 3072 3068 3064 3061 3054 3044 3044 3042 3029 3020
3171 3172 3172 3173 3173 3174 3174 3174 3174 3174 3174 3175 3175 3175 3175 3175 3174 3174 3173 3173 3174 3172 3171 3171 3171 3170 3170 3169 3169 3169 3169 3169 3168 3168 3167 3166 3165 3164 3163 3162 3160 3158 3157 3155 3153 3151 3149 3148 3146 3144 3142 3139 3137 3134 3132 3130 3128 3126 3124 3121 3119 3117 3116 3115 3113 3111 3108 3102 3097 3094 3091 3085 3080 3076 3075 3073 3071 3069 3066 3062 3058 3053 3044 3037 3037 3031 3020
3173 3174 3174 3175 3175 3176 3176 3176 3176 3176 3176 3176 3177 3176 3176 3176 3175 3175 3174 3174 3174 3173 3172 3172 3172 3171 3171 3170 3170 3170 3169 3169 3168 3168 3167 3166 3165 3164 3163 3161 3160 3158 3156 3154 3152 3151 3149 3147 3145 3143 3141 3139 3137 3134 3131 3129 3127 3125 3122 3120 3118 3115 3113 3113 3111 3107 3105 3101 3095 3093 3091 3086 3080 3075 3071 3070 3069 3066 3063 3060 3055 3052 3044 3033 3030 3030 3022
3175 3176 3176 3177 3177 3178 3178 3178 3178 3178 3178 3178 3178 3178 3178 3177 3176 3176 3175 3175 3174 3174 3173 3173 3172 3172 3171 3171 3170 3170 3170 3169 3169 3168 3167 3166 3165 3164 3162 3161 3159 3157 3155 3153 3151 3149 3148 3146 3144 3141 3139 3137 3135 3133 3130 3128 3126 3124 3121 3119 3117 3114 3111 3110 3107 3103 3101 3099 3095 3091 3088 3083 3078 3074 3070 3068 3067 3064 3060 3056 3052 3050 3045 3034 3027 3026 3020
3178 3179 3179 3179 3180 3180 3180 3180 3180 3180 3180 3179 3179 3179 3179 3178 3177 3177 3176 3175 3175 3174 3174 3173 3173 3172 3172 3171 3171 3171 3170 3169 3169 3168 3167 3166 3164 3163 3162 3160 3158 3156 3154 3152 3150 3148 3145 3143 3141 3139 3137 3135 3133 3131 3129 3127 3125 3123 3121 3119 3117 3113 3110 3107 3104 3099 3096 3095 3092 3088 3085 3079 3074 3071 3069 3066 3064 3061 3057 3053 3049 3047 3042 3035 3028 3022 3017
3181 3181 3182 3182 3182 3183 3183 3183 3182 3182 3182 3181 3181 3180 3180 3179 3178 3177 3177 3176 3175 3175 3174 3174 3173 3173 3172 3172 3171 3171 3170 3169 3169 3168 3167 3165 3164 3163 3161 3159 3157 3156 3154 3152 3150 3148 3146 3143 3141 3138 3136 3134 3132 3130 3129 3127 3125 3123 3121 3119 3116 3113 3108 3106 3103 3096 3091 3091 3088 3084 3081 3077 3071 3067 3066 3063 3060 3057 3054 3050 3047 3042 3036 3031 3026 3018 3013
3183 3184 3184 3184 3185 3185 3185 3185 3184 3184 3183 3183 3182 3182 3181 3180 3179 3178 3177 3177 3176 3175 3175 3174 3174 3173 3173 3172 3172 3171 3170 3169 3168 3167 3166 3165 3164 3162 3161 3159 3157 3156 3154 3152 3150 3148 3146 3144 3141 3139 3137 3134 3133 3131 3129 3127 3125 3123 3121 3118 3115 3112 3108 3104 3101 3094 3087 3087 3086 3081 3077 3073 3069 3066 3063 3059 3056 3053 3051 3048 3045 3040 3032 3025 3019 3014 3008
3185 3186 3186 3186 3186 3186 3186 3186 3186 3185 3185 3184 3183 3183 3182 3181 3180 3179 3178 3177 3176 3176 3175 3175 3174 3174 3173 3172 3172 3171 3170 3169 3168 3167 3166 3165 3163 3162 3160 3159 3157 3155 3154 3152 3150 3148 3146 3144 3141 3139 3137 3135 3133 3132 3130 3128 3125 3122 3120 3117 3114 3112 3108 3103 3100 3093 3085 3084 3084 3079 3073 3068 3065 3064 3061 3058 3054 3051 3047 3045 3042 3039 3033 3024 3016 3011 3006
3188 3188 3188 3188 3188 3188 3188 3187 3187 3186 3185 3185 3184 3183 3182 3181 3180 3179 3179 3178 3177 3176 3175 3175 3174 3174 3173 3172 3172 3171 3170 3169 3168 3167 3165 3164 3163 3161 3160 3158 3156 3154 3153 3151 3149 3147 3145 3143 3141 3139 3137 3135 3133 3132 3130 3128 3125 3122 3120 3116 3113 3111 3108 3104 3101 3094 3085 3082 3081 3076 3072 3069 3065 3063 3061 3057 3053 3048 3043 3040 3037 3035 3031 3024 3017 3011 3006
3190 3190 3190 3190 3189 3189 3189 3188 3188 3187 3186 3186 3185 3184 3183 3182 3181 3180 3179 3178 3177 3176 3176 3175 3175 3174 3173 3172 3171 3171 3170 3168 3167 3166 3165 3163 3162 3160 3159 3157 3155 3154 3152 3150 3148 3146 3144 3142 3140 3138 3136 3134 3132 3131 3129 3127 3124 3121 3119 3116 3112 3109 3106 3103 3100 3095 3087 3082 3080 3076 3072 3069 3067 3063 3059 3055 3052 3048 3042 3037 3035 3031 3026 3020 3015 3010 3004
3191 3191 3191 3191 3190 3190 3189 3189 3188 3188 3187 3186 3185 3184 3183 3182 3181 3180 3179 3178 3177 3176 3176 3175 3174 3174 3173 3172 3171 3170 3169 3168 3167 3165 3164 3163 3161 3160 3158 3156 3154 3153 3151 3148 3147 3145 3143 3141 3139 3136 3135 3133 3131 3129 3127 3125 3123 3120 3117 3114 3111 3108 3106 3102 3099 3095 3088 3083 3082 3079 3072 3067 3065 3062 3057 3053 3048 3045 3038 3030 3027 3026 3021 3015 3011 3006 3000
3192 3192 3192 3192 3191 3191 3190 3190 3189 3188 3187 3186 3186 3185 3184 3183 3182 3181 3180 3178 3177 3177 3176 3175 3174 3173 3173 3172 3171 3170 3169 3168 3166 3165 3164 3162 3161 3159 3157 3155 3153 3151 3150 3147 3145 3143 3141 3138 3136 3134 3132 3129 3127 3126 3125 3124 3122 3120 3116 3114 3111 3108 3106 3102 3098 3094 3091 3086 3083 3078 3069 3064 3063 3059 3055 3050 3045 3042 3036 3027 3021 3021 3019 3013 3008 3001 2995
3193 3193 3193 3192 3192 3191 3191 3190 3189 3188 3187 3186 3186 3185 3184 3183 3182 3181 3180 3178 3177 3176 3175 3175 3174 3173 3172 3172 3171 3170 3169 3168 3166 3165 3163 3161 3160 3158 3157 3155 3153 3150 3148 3147 3144 3142 3139 3136 3133 3131 3129 3127 3125 3124 3124 3123 3121 3119 3116 3113 3110 3107 3105 3103 3099 3095 3092 3088 3082 3075 3068 3064 3061 3057 3054 3051 3047 3043 3038 3028 3021 3019 3016 3011 3005 2998 2991
3194 3194 3193 3193 3192 3192 3191 3190 3189 3188 3187 3186 3185 3184 3183 3182 3181 3180 3179 3178 3177 3176 3175 3174 3174 3173 3172 3172 3171 3169 3168 3167 3166 3164 3162 3161 3159 3158 3156 3154 3152 3150 3148 3146 3143 3141 3139 3136 3134 3132 3130 3128 3127 3125 3123 3121 3119 3117 3115 3112 3110 3107 3104 3102 3099 3095 3092 3089 3084 3078 3071 3065 3061 3057 3053 3049 3044 3040 3034 3026 3020 3017 3014 3008 3002 2995 2988
3195 3194 3194 3193 3193 3192 3191 3190 3189 3188 3187 3186 3185 3184 3183 3182 3181 3180 3179 3178 3177 3176 3175 3174 3173 3173 3172 3171 3170 3169 3168 3166 3165 3163 3162 3161 3159 3157 3155 3153 3151 3150 3147 3145 3143 3141 3138 3136 3134 3133 3131 3129 3127 3125 3123 3120 3117 3114 3112 3110 3108 3106 3103 3101 3098 3094 3090 3088 3084 3079 3073 3067 3063 3058 3052 3046 3041 3036 3030 3023 3016 3012 3010 3006 2999 2992 2986
3195 3195 3194 3194 3193 3192 3191 3190 3189 3187 3186 3185 3184 3183 3182 3181 3181 3180 3179 3178 3177 3175 3174 3174 3173 3172 3172 3171 3169 3169 3167 3166 3164 3163 3161 3160 3158 3156 3155 3153 3151 3149 3147 3145 3143 3140 3138 3136 3134 3132 3131 3129 3127 3125 3122 3120 3117 3114 3111 3109 3106 3104 3102 3099 3097 3093 3089 3085 3081 3076 3071 3067 3063 3058 3052 3045 3037 3032 3029 3025 3017 3011 3007 3003 2997 2991 2984
3195 3195 3194 3193 3193 3191 3190 3189 3188 3187 3186 3185 3184 3183 3182 3181 3180 3179 3178 3177 3176 3175 3174 3173 3172 3172 3171 3170 3169 3168 3167 3165 3164 3163 3161 3159 3158 3156 3154 3152 3150 3148 3146 3144 3142 3140 3138 3135 3134 3132 3131 3129 3127 3125 3123 3120 3118 3115 3112 3108 3105 3102 3100 3098 3095 3092 3089 3085 3080 3075 3070 3066 3061 3056 3052 3044 3036 3032 3030 3027 3020 3012 3006 3000 2995 2989 2982
3195 3195 3194 3193 3192 3191 3190 3188 3187 3186 3185 3184 3183 3182 3181 3180 3180 3179 3178 3177 3175 3174 3173 3172 3172 3171 3170 3169 3168 3167 3166 3164 3163 3162 3160 3158 3157 3155 3153 3152 3150 3148 3146 3144 3142 3139 3137 3135 3134 3132 3131 3129 3127 3125 3123 3121 3118 3116 3113 3110 3107 3103 3100 3097 3095 3092 3088 3084 3081 3076 3070 3065 3059 3053 3048 3042 3039 3037 3032 3024 3018 3012 3006 2998 2992 2986 2979
3195 3194 3194 3192 3191 3190 3189 3188 3186 3185 3184 3183 3182 3181 3181 3180 3179 3178 3177 3176 3175 3174 3173 3172 3171 3170 3169 3168 3167 3166 3165 3164 3162 3161 3159 3157 3156 3154 3152 3151 3149 3147 3145 3143 3141 3139 3137 3135 3134 3132 3131 3130 3127 3125 3122 3120 3118 3116 3113 3111 3108 3105 3102 3098 3095 3093 3089 3084 3081 3078 3073 3066 3060 3055 3048 3044 3041 3038 3030 3022 3015 3010 3003 2996 2989 2982 2977
3195 3194 3193 3192 3191 3189 3188 3187 3186 3184 3183 3182 3181 3181 3180 3179 3178 3177 3176 3175 3174 3173 3172 3171 3170 3170 3169 3168 3167 3165 3164 3163 3162 3160 3158 3156 3155 3153 3151 3150 3148 3146 3144 3143 3141 3139 3137 3136 3135 3133 3131 3129 3127 3124 3122 3119 3117 3116 3113 3111 3108 3106 3104 3100 3096 3093 3090 3085 3080 3076 3071 3065 3061 3056 3050 3044 3039 3034 3028 3021 3014 3007 3000 2993 2986 2979 2973
3194 3193 3192 3191 3189 3188 3187 3186 3185 3184 3182 3182 3180 3180 3179 3178 3177 3176 3175 3174 3173 3172 3171 3171 3170 3169 3168 3167 3166 3165 3164 3162 3161 3159 3157 3156 3154 3152 3150 3149 3147 3145 3144 3143 3141 3140 3138 3136 3134 3132 3130 3127 3125 3123 3121 3118 3116 3114 3112 3110 3108 3105 3102 3099 3094 3090 3086 3082 3078 3073 3067 3062 3058 3054 3048 3042 3036 3030 3024 3018 3012 3005 2999 2992 2984 2977 2970
3192 3191 3190 3189 3188 3187 3186 3185 3184 3182 3181 3180 3179 3179 3178 3177 3176 3176 3175 3173 3172 3172 3171 3170 3169 3168 3168 3167 3166 3164 3163 3162 3160 3159 3157 3155 3153 3152 3150 3148 3147 3145 3144 3142 3141 3139 3138 3136 3134 3132 3130 3127 3124 3122 3120 3117 3115 3112 3110 3108 3105 3102 3099 3095 3091 3087 3081 3076 3072 3068 3063 3058 3054 3049 3043 3038 3033 3027 3021 3015 3008 3002 2996 2989 2982 2976 2968
3191 3190 3189 3188 3187 3186 3185 3183 3182 3181 3180 3180 3179 3178 3177 3176 3175 3175 3174 3173 3172 3171 3170 3169 3169 3168 3167 3166 3165 3164 3163 3161 3160 3158 3156 3155 3153 3151 3149 3148 3146 3145 3143 3142 3140 3139 3137 3135 3133 3132 3130 3127 3124 3122 3120 3117 3115 3112 3108 3105 3102 3099 3096 3092 3088 3083 3078 3073 3068 3064 3061 3058 3053 3047 3040 3034 3028 3022 3018 3012 3006 2999 2993 2986 2980 2974 2966
3190 3189 3187 3186 3185 3184 3183 3182 3181 3180 3179 3179 3178 3177 3176 3175 3174 3174 3173 3172 3171 3170 3169 3169 3168 3167 3167 3166 3164 3163 3162 3161 3159 3158 3156 3154 3152 3151 3149 3147 3146 3144 3143 3141 3139 3138 3136 3134 3132 3131 3129 3126 3124 3122 3120 3117 3114 3111 3109 3105 3101 3097 3094 3089 3084 3079 3075 3070 3065 3058 3053 3051 3049 3045 3038 3032 3025 3019 3013 3008 3003 2996 2989 2983 2977 2971 2965
3189 3187 3186 3185 3184 3183 3182 3181 3180 3179 3178 3177 3177 3176 3175 3175 3174 3173 3172 3171 3170 3169 3169 3168 3167 3167 3166 3165 3164 3163 3162 3160 3159 3157 3155 3153 3152 3150 3148 3147 3145 3143 3142 3140 3138 3137 3135 3133 3131 3130 3128 3125 3123 3121 3118 3116 3114 3111 3108 3104 3100 3095 3091 3086 3081 3075 3070 3066 3062 3055 3048 3043 3041 3038 3034 3029 3023 3016 3010 3005 2999 2992 2986 2979 2973 2967 2962
3188 3187 3186 3184 3183 3182 3181 3180 3179 3178 3177 3177 3176 3175 3175 3174 3173 3172 3171 3170 3170 3169 3168 3167 3167 3166 3165 3165 3164 3162 3161 3159 3158 3156 3154 3152 3151 3149 3147 3146 3144 3142 3140 3139 3137 3136 3134 3133 3131 3129 3127 3124 3122 3119 3117 3115 3112 3109 3106 3102 3098 3094 3089 3085 3080 3075 3070 3066 3062 3058 3052 3046 3041 3037 3032 3027 3020 3014 3008 3002 2996 2990 2984 2977 2970 2963 2957
3187 3186 3185 3184 3183 3181 3180 3179 3178 3177 3176 3176 3175 3174 3174 3173 3172 3171 3170 3170 3169 3168 3168 3167 3166 3166 3165 3164 3163 3162 3160 3158 3157 3155 3153 3152 3150 3148 3146 3145 3143 3141 3140 3138 3136 3135 3133 3132 3130 3128 3125 3123 3120 3118 3116 3113 3110 3107 3104 3101 3098 3094 3090 3085 3080 3075 3070 3066 3062 3058 3053 3047 3041 3036 3030 3024 3018 3012 3006 3000 2994 2988 2982 2976 2969 2962 2955
3186 3185 3184 3183 3182 3181 3180 3178 3177 3176 3176 3175 3174 3173 3173 3172 3171 3171 3170 3169 3169 3168 3167 3166 3166 3165 3164 3163 3162 3161 3159 3157 3156 3154 3152 3151 3149 3147 3146 3144 3142 3140 3139 3137 3136 3134 3132 3131 3129 3126 3124 3122 3119 3116 3114 3111 3108 3106 3102 3099 3095 3092 3088 3084 3079 3074 3069 3064 3060 3056 3051 3045 3040 3034 3029 3023 3017 3011 3004 2998 2992 2987 2981 2974 2968 2961 2955
3186 3185 3184 3183 3181 3180 3179 3178 3176 3176 3175 3174 3173 3173 3172 3172 3171 3170 3170 3169 3168 3167 3167 3166 3165 3164 3163 3162 3161 3160 3158 3156 3155 3153 3151 3150 3148 3146 3145 3143 3141 3140 3138 3136 3135 3133 3131 3129 3127 3125 3123 3120 3118 3115 3112 3109 3106 3103 3100 3096 3093 3089 3086 3082 3078 3073 3067 3062 3057 3054 3050 3044 3037 3031 3026 3021 3014 3008 3001 2996 2991 2986 2979 2973 2967 2961 2954
3187 3185 3184 3183 3182 3180 3179 3177 3176 3175 3174 3173 3173 3172 3172 3171 3170 3170 3169 3168 3168 3167 3166 3165 3165 3164 3162 3161 3160 3159 3157 3156 3154 3152 3151 3149 3147 3145 3144 3142 3140 3139 3137 3135 3134 3132 3130 3128 3126 3124 3121 3119 3116 3113 3110 3107 3103 3100 3096 3093 3090 3087 3083 3079 3074 3070 3065 3059 3054 3049 3045 3041 3035 3028 3022 3017 3011 3005 2999 2994 2989 2984 2978 2973 2968 2961 2954
3187 3185 3184 3183 3181 3180 3178 3177 3175 3174 3173 3173 3172 3172 3171 3171 3170 3169 3169 3168 3167 3167 3166 3165 3164 3163 3162 3161 3159 3158 3156 3155 3153 3151 3149 3148 3146 3144 3143 3141 3139 3138 3136 3134 3133 3131 3129 3127 3125 3122 3120 3117 3114 3111 3108 3105 3101 3098 3094 3090 3087 3084 3081 3077 3072 3066 3062 3058 3052 3046 3040 3036 3032 3027 3021 3015 3009 3003 2997 2992 2987 2982 2977 2971 2964 2958 2952
3187 3185 3184 3183 3181 3180 3178 3177 3175 3174 3173 3173 3172 3171 3171 3170 3170 3169 3168 3168 3167 3166 3166 3165 3164 3163 3161 3160 3159 3157 3155 3154 3152 3150 3148 3147 3145 3143 3142 3140 3138 3136 3135 3133 3131 3130 3128 3126 3123 3121 3118 3116 3112 3109 3106 3102 3099 3095 3091 3088 3084 3080 3077 3073 3069 3064 3059 3055 3051 3046 3041 3036 3032 3026 3020 3013 3006 3001 2996 2990 2984 2979 2974 2967 2961 2954 2948
3187 3185 3184 3182 3181 3179 3178 3176 3175 3174 3173 3173 3172 3171 3171 3170 3169 3169 3168 3168 3167 3166 3165 3164 3163 3162 3161 3159 3158 3156 3154 3153 3151 3149 3148 3146 3144 3142 3141 3139 3137 3135 3133 3132 3130 3128 3127 3124 3122 3120 3117 3114 3111 3107 3103 3099 3096 3092 3089 3085 3081 3077 3072 3069 3065 3061 3057 3053 3049 3046 3042 3037 3030 3023 3016 3010 3004 2998 2993 2988 2983 2977 2971 2965 2959 2952 2946
3186 3185 3183 3182 3180 3179 3178 3176 3175 3174 3173 3173 3172 3171 3171 3170 3169 3169 3168 3167 3166 3166 3165 3164 3163 3161 3160 3158 3156 3155 3153 3151 3150 3148 3146 3145 3143 3141 3139 3138 3136 3134 3132 3130 3129 3127 3125 3123 3120 3118 3115 3112 3109 3105 3101 3097 3093 3090 3086 3082 3078 3074 3070 3066 3062 3059 3055 3051 3047 3043 3039 3033 3026 3019 3014 3008 3003 2997 2992 2987 2981 2976 2969 2963 2956 2950 2944
3186 3184 3183 3181 3180 3178 3177 3176 3175 3174 3173 3173 3172 3171 3170 3170 3169 3168 3168 3167 3166 3165 3164 3163 3162 3160 3159 3157 3155 3154 3152 3150 3149 3147 3145 3143 3142 3140 3138 3136 3135 3133 3131 3129 3127 3125 3123 3121 3118 3116 3113 3110 3106 3103 3099 3095 3091 3087 3084 3080 3076 3073 3069 3064 3060 3056 3052 3049 3044 3039 3034 3029 3023 3018 3012 3007 3002 2996 2990 2984 2978 2972 2966 2960 2954 2948 2942
3185 3183 3182 3180 3179 3178 3177 3176 3175 3174 3173 3172 3172 3171 3170 3170 3169 3168 3167 3167 3166 3165 3164 3162 3161 3159 3158 3156 3155 3153 3152 3150 3148 3146 3144 3142 3141 3139 3137 3135 3133 3131 3129 3128 3126 3124 3121 3119 3116 3114 3111 3108 3104 3100 3097 3093 3089 3086 3082 3079 3075 3071 3067 3063 3059 3055 3050 3046 3041 3036 3031 3026 3021 3016 3010 3005 2999 2993 2988 2982 2977 2971 2965 2959 2953 2947 2942
3183 3182 3181 3179 3178 3178 3177 3176 3175 3174 3173 3172 3172 3171 3170 3170 3169 3168 3167 3166 3165 3164 3163 3161 3160 3158 3157 3155 3153 3152 3150 3148 3147 3145 3143 3141 3139 3138 3136 3134 3132 3130 3128 3126 3124 3122 3119 3117 3114 3111 3108 3105 3102 3098 3095 3091 3088 3084 3081 3077 3073 3069 3066 3062 3058 3053 3048 3042 3037 3032 3027 3023 3018 3013 3008 3003 2998 2993 2987 2982 2976 2971 2965 2959 2953 2947 2941
3182 3180 3179 3178 3177 3177 3176 3175 3175 3174 3173 3172 3172 3171 3170 3169 3168 3167 3166 3165 3164 3163 3162 3160 3159 3157 3156 3154 3152 3151 3149 3147 3145 3144 3142 3140 3138 3137 3135 3133 3131 3129 3126 3124 3123 3120 3118 3115 3112 3109 3106 3103 3100 3097 3093 3089 3086 3082 3078 3075 3071 3068 3064 3060 3056 3052 3047 3042 3037 3033 3028 3023 3018 3012 3007 3001 2996 2991 2986 2981 2975 2970 2964 2958 2952 2946 2939
3180 3179 3178 3177 3177 3176 3176 3175 3174 3174 3173 3172 3171 3171 3170 3169 3168 3167 3165 3164 3163 3162 3161 3159 3158 3156 3154 3153 3151 3149 3148 3146 3144 3142 3140 3139 3137 3135 3133 3132 3130 3127 3125 3123 3121 3118 3116 3113 3110 3107 3104 3101 3098 3095 3091 3087 3083 3080 3076 3073 3069 3066 3062 3059 3055 3050 3046 3041 3037 3032 3027 3022 3017 3012 3006 3000 2995 2989 2984 2979 2974 2968 2962 2957 2951 2945 2939
3179 3178 3177 3177 3176 3176 3175 3175 3174 3173 3173 3172 3171 3170 3169 3168 3167 3166 3165 3163 3162 3161 3160 3158 3157 3155 3153 3152 3150 3148 3146 3145 3143 3141 3139 3138 3136 3134 3132 3131 3129 3126 3124 3122 3119 3117 3114 3111 3108 3105 3102 3099 3095 3092 3088 3085 3081 3077 3074 3071 3067 3064 3060 3057 3053 3048 3044 3040 3035 3030 3026 3021 3015 3010 3004 2999 2994 2988 2982 2977 2972 2967 2962 2956 2951 2945 2940
3179 3178 3177 3176 3176 3175 3175 3174 3174 3173 3172 3172 3171 3170 3169 3167 3166 3165 3164 3163 3162 3160 3159 3158 3156 3154 3152 3150 3149 3147 3145 3143 3142 3140 3138 3136 3135 3133 3131 3129 3127 3125 3123 3121 3118 3115 3112 3109 3106 3102 3099 3096 3093 3089 3086 3082 3079 3075 3072 3068 3065 3062 3058 3054 3050 3046 3042 3037 3033 3029 3024 3019 3013 3008 3003 2997 2992 2987 2982 2976 2971 2966 2961 2956 2950 2945 2939
3179 3178 3177 3176 3176 3175 3174 3174 3173 3173 3172 3171 3170 3169 3168 3167 3166 3165 3163 3162 3161 3160 3158 3157 3155 3153 3151 3149 3148 3146 3144 3142 3141 3139 3137 3135 3134 3132 3130 3128 3126 3124 3122 3119 3116 3113 3110 3107 3104 3101 3097 3094 3090 3087 3084 3080 3077 3073 3070 3066 3062 3059 3055 3052 3048 3044 3040 3036 3032 3027 3023 3018 3012 3007 3002 2996 2991 2986 2981 2976 2971 2966 2960 2955 2950 2944 2938
3179 3178 3177 3176 3176 3175 3174 3174 3173 3172 3171 3170 3169 3168 3167 3166 3165 3164 3163 3162 3161 3159 3158 3156 3154 3152 3150 3149 3147 3145 3143 3141 3140 3138 3136 3134 3132 3131 3129 3127 3125 3122 3120 3117 3114 3111 3108 3105 3102 3098 3095 3092 3088 3085 3081 3078 3075 3071 3067 3064 3060 3056 3053 3050 3046 3042 3038 3034 3030 3025 3021 3016 3011 3006 3001 2995 2990 2985 2980 2975 2970 2965 2959 2954 2949 2943 2938
3179 3178 3178 3177 3176 3175 3174 3173 3173 3172 3171 3170 3169 3167 3167 3166 3165 3164 3162 3161 3160 3159 3157 3155 3153 3152 3150 3148 3146 3144 3142 3140 3138 3137 3135 3133 3131 3129 3128 3125 3123 3120 3118 3115 3112 3108 3105 3102 3099 3096 3093 3089 3086 3083 3079 3076 3072 3069 3065 3061 3057 3054 3051 3047 3044 3040 3036 3032 3028 3024 3019 3015 3010 3005 2999 2994 2989 2984 2979 2974 2969 2964 2959 2953 2948 2942 2937
3180 3179 3178 3177 3176 3175 3174 3173 3172 3171 3170 3169 3168 3167 3166 3165 3164 3163 3162 3160 3159 3158 3156 3155 3153 3151 3149 3147 3145 3143 3141 3139 3137 3136 3134 3132 3130 3128 3126 3124 3121 3119 3116 3112 3109 3106 3103 3100 3097 3094 3091 3087 3084 3080 3077 3073 3069 3066 3062 3059 3055 3052 3048 3045 3041 3037 3034 3030 3025 3021 3017 3013 3008 3003 2997 2992 2987 2983 2978 2973 2968 2963 2958 2952 2947 2942 2936
3180 3179 3178 3177 3176 3175 3174 3173 3172 3171 3170 3169 3168 3167 3166 3165 3164 3162 3161 3160 3158 3157 3155 3154 3152 3150 3148 3146 3144 3142 3140 3138 3136 3134 3133 3131 3129 3127 3125 3122 3120 3118 3115 3111 3107 3104 3101 3098 3095 3091 3088 3085 3081 3078 3074 3071 3067 3063 3060 3056 3053 3049 3046 3042 3039 3035 3031 3027 3023 3019 3015 3011 3006 3001 2996 2991 2986 2981 2977 2972 2966 2961 2957 2952 2947 2942 2937
3180 3179 3178 3177 3176 3175 3174 3173 3172 3171 3169 3168 3167 3166 3165 3164 3163 3162 3160 3159 3157 3156 3154 3153 3151 3149 3147 3145 3143 3141 3139 3137 3135 3133 3132 3130 3128 3125 3123 3121 3118 3115 3112 3109 3105 3102 3099 3095 3092 3089 3086 3082 3079 3076 3072 3068 3065 3061 3057 3054 3051 3047 3043 3040 3037 3033 3029 3025 3021 3016 3012 3008 3004 2999 2995 2990 2985 2980 2975 2970 2965 2961 2956 2952 2947 2942 2937
3180 3179 3178 3177 3176 3174 3173 3172 3171 3170 3169 3168 3167 3166 3164 3163 3162 3161 3159 3158 3156 3155 3153 3151 3150 3148 3146 3144 3141 3139 3137 3136 3134 3132 3130 3128 3126 3124 3122 3119 3116 3112 3109 3106 3103 3099 3096 3093 3090 3086 3083 3080 3076 3073 3069 3066 3062 3058 3055 3052 3048 3045 3041 3038 3034 3030 3027 3023 3018 3014 3010 3006 3001 2997 2993 2988 2983 2978 2973 2969 2965 2961 2956 2951 2946 2941 2936
3180 3179 3177 3176 3175 3174 3172 3171 3170 3169 3168 3167 3166 3165 3163 3162 3161 3160 3158 3157 3155 3153 3151 3150 3148 3146 3144 3142 3140 3138 3136 3134 3132 3130 3128 3126 3124 3121 3119 3116 3113 3110 3107 3103 3100 3097 3094 3090 3087 3083 3080 3077 3074 3070 3067 3063 3059 3056 3052 3049 3046 3042 3039 3035 3032 3028 3024 3020 3016 3012 3008 3003 2999 2995 2991 2986 2982 2977 2972 2968 2965 2960 2955 2950 2944 2939 2934
3179 3178 3177 3175 3174 3173 3172 3170 3169 3168 3167 3166 3164 3163 3162 3161 3160 3158 3157 3155 3154 3152 3150 3148 3146 3144 3142 3140 3138 3137 3134 3132 3130 3128 3126 3124 3121 3119 3116 3113 3110 3107 3104 3101 3098 3094 3091 3087 3084 3081 3077 3074 3071 3067 3064 3060 3057 3053 3050 3046 3043 3040 3036 3033 3029 3025 3021 3018 3014 3010 3005 3001 2997 2993 2989 2984 2980 2976 2972 2968 2964 2960 2955 2949 2943 2937 2932